Indiana, PA

11:25 PM EDT on July 20, 2017 (GMT -0400)
Indiana County-Stewart

Weather History for KIDI - March, 2013

Change the Weather History Date:

Tuesday, March 12, 2013

  Actual Average Record
Temperature  
Mean Temperature 43 °F -  
Max Temperature 51 °F 46 °F 78 °F (1990)
Min Temperature 35 °F 27 °F 3 °F (1984)
Degree Days  
Heating Degree Days 22    
Moisture  
Dew Point 37 °F    
Average Humidity 93    
Maximum Humidity 100    
Minimum Humidity 75    
Precipitation  
Precipitation 0.51 in - - ()
Sea Level Pressure  
Sea Level Pressure 29.86 in    
Wind  
Wind Speed 9 mph (West)    
Max Wind Speed 17 mph    
Max Gust Speed 24 mph    
Visibility 8 miles    
Events      
Averages and records for this station are not official NWS values.
T = Trace of Precipitation, MM = Missing Value Source: NWS Daily Summary

Daily Weather History Graph

Daily Weather History Graph

Search for Another Location

Airport or City:

Trip Planner

Search our weather history database for the weather conditions in past years. The results will help you decide how hot, cold, wet, or windy it might be!

Date:

Astronomy

Mar. 12, 2013 Rise Set
Actual Time 7:32 AM EDT 7:20 PM EDT
Civil Twilight 7:05 AM EDT 7:47 PM EDT
Nautical Twilight 6:33 AM EDT 8:19 PM EDT
Astronomical Twilight 6:01 AM EDT 8:51 PM EDT
Moon 7:37 AM EDT (3/12) 8:34 PM EDT (3/12)
Length of Visible Light 12h 42m
Length of Day
11h 47m
New Moon, 1% of the Moon is Illuminated
Mar 12
New Moon
Mar 19
First Quarter
Mar 27
Full
Apr 3
Last Quarter
Apr 10
New

Hourly Weather History & Observations

Time (EDT) Temp. Windchill Dew Point Humidity Pressure Visibility Wind Dir Wind Speed Gust Speed Precip Events Conditions
12:15 AM 51.8 °F - 51.8 °F 100% 29.78 in 10.0 mi SSW 10.4 mph - 0.04 in   Unknown
12:35 AM 51.8 °F - 51.8 °F 100% 29.77 in 10.0 mi SSW 11.5 mph 17.3 mph 0.05 in   Unknown
12:55 AM 50.0 °F - 50.0 °F 100% 29.76 in 10.0 mi South 10.4 mph 16.1 mph 0.13 in   Unknown
1:15 AM 50.0 °F - 50.0 °F 100% 29.76 in 5.0 mi South 11.5 mph - 0.08 in   Unknown
1:35 AM 46.4 °F 40.1 °F 46.4 °F 100% 29.78 in 5.0 mi NW 15.0 mph 21.9 mph 0.20 in   Unknown
1:55 AM 44.6 °F 41.4 °F 44.6 °F 100% 29.79 in 10.0 mi West 5.8 mph - 0.22 in   Unknown
2:15 AM 44.6 °F 40.2 °F 44.6 °F 100% 29.78 in 10.0 mi West 8.1 mph - 0.01 in   Unknown
2:35 AM 44.6 °F 40.7 °F 44.6 °F 100% 29.79 in 10.0 mi West 6.9 mph - 0.01 in   Unknown
2:55 AM 44.6 °F 40.7 °F 44.6 °F 100% 29.79 in 10.0 mi WSW 6.9 mph - 0.01 in   Unknown
3:15 AM 44.6 °F 40.7 °F 44.6 °F 100% 29.79 in 7.0 mi West 6.9 mph - N/A   Unknown
3:35 AM 44.6 °F 42.2 °F 44.6 °F 100% 29.79 in 10.0 mi WSW 4.6 mph - N/A   Unknown
3:55 AM 44.6 °F 41.4 °F 44.6 °F 100% 29.79 in 4.0 mi WSW 5.8 mph - 0.04 in   Unknown
4:15 AM 42.8 °F 39.3 °F 42.8 °F 100% 29.79 in 5.0 mi West 5.8 mph - 0.04 in   Unknown
4:35 AM 42.8 °F 40.1 °F 42.8 °F 100% 29.79 in 7.0 mi West 4.6 mph - 0.08 in   Unknown
4:55 AM 42.8 °F 38.6 °F 42.8 °F 100% 29.80 in 5.0 mi WSW 6.9 mph - 0.09 in   Unknown
5:15 AM 42.8 °F 38.0 °F 42.8 °F 100% 29.80 in 7.0 mi West 8.1 mph - 0.01 in   Unknown
5:35 AM 41.0 °F 35.2 °F 41.0 °F 100% 29.82 in 4.0 mi WNW 9.2 mph - 0.01 in   Unknown
5:55 AM 39.2 °F 33.6 °F 39.2 °F 100% 29.82 in 4.0 mi NW 8.1 mph - 0.02 in   Unknown
6:15 AM 39.2 °F 34.2 °F 39.2 °F 100% 29.82 in 4.0 mi WNW 6.9 mph - N/A   Unknown
6:35 AM 39.2 °F 34.2 °F 39.2 °F 100% 29.83 in 5.0 mi WNW 6.9 mph - N/A   Unknown
6:55 AM 39.2 °F 34.2 °F 39.2 °F 100% 29.84 in 7.0 mi West 6.9 mph - N/A   Unknown
7:15 AM 39.2 °F 34.2 °F 39.2 °F 100% 29.84 in 10.0 mi West 6.9 mph - N/A   Unknown
7:35 AM 39.2 °F 33.6 °F 39.2 °F 100% 29.84 in 3.0 mi West 8.1 mph - N/A   Unknown
7:55 AM 37.4 °F 30.8 °F 37.4 °F 100% 29.84 in 4.0 mi West 9.2 mph - N/A   Unknown
8:15 AM 37.4 °F 32.1 °F 37.4 °F 100% 29.84 in 2.0 mi WSW 6.9 mph - N/A   Unknown
8:35 AM 37.4 °F 31.4 °F 37.4 °F 100% 29.85 in 2.0 mi West 8.1 mph - N/A   Unknown
8:55 AM 37.4 °F 31.4 °F 37.4 °F 100% 29.86 in 4.0 mi West 8.1 mph - N/A   Unknown
9:35 AM 37.4 °F 30.8 °F 37.4 °F 100% 29.86 in 3.0 mi West 9.2 mph - N/A   Unknown
9:55 AM 37.4 °F 31.4 °F 37.4 °F 100% 29.86 in 2.5 mi NW 8.1 mph - N/A   Unknown
10:15 AM 35.6 °F 29.9 °F 35.6 °F 100% 29.87 in 2.5 mi NW 6.9 mph - N/A   Unknown
10:35 AM 35.6 °F 28.0 °F 35.6 °F 100% 29.87 in 2.5 mi WNW 10.4 mph - N/A   Unknown
10:55 AM 35.6 °F 30.7 °F 35.6 °F 100% 29.87 in 3.0 mi West 5.8 mph - N/A   Unknown
11:15 AM 37.4 °F 30.8 °F 37.4 °F 100% 29.87 in 10.0 mi West 9.2 mph - N/A   Unknown
11:35 AM 37.4 °F 31.4 °F 37.4 °F 100% 29.86 in 10.0 mi West 8.1 mph 17.3 mph N/A   Unknown
11:55 AM 37.4 °F 29.3 °F 37.4 °F 100% 29.87 in 10.0 mi West 12.7 mph - N/A   Unknown
12:15 PM 37.4 °F 29.8 °F 35.6 °F 93% 29.86 in 10.0 mi WNW 11.5 mph - N/A   Unknown
12:35 PM 37.4 °F 30.3 °F 37.4 °F 100% 29.86 in 10.0 mi West 10.4 mph 16.1 mph N/A   Unknown
12:55 PM 37.4 °F 31.4 °F 35.6 °F 93% 29.86 in 10.0 mi West 8.1 mph 18.4 mph N/A   Unknown
1:15 PM 37.4 °F 32.1 °F 35.6 °F 93% 29.86 in 10.0 mi West 6.9 mph - N/A   Unknown
1:35 PM 37.4 °F 28.9 °F 35.6 °F 93% 29.87 in 10.0 mi WNW 13.8 mph - N/A   Unknown
1:55 PM 37.4 °F 28.5 °F 35.6 °F 93% 29.86 in 10.0 mi West 15.0 mph 20.7 mph N/A   Unknown
2:15 PM 37.4 °F 29.3 °F 35.6 °F 93% 29.86 in 10.0 mi WNW 12.7 mph 17.3 mph N/A   Unknown
2:35 PM 37.4 °F 28.9 °F 35.6 °F 93% 29.87 in 10.0 mi West 13.8 mph 24.2 mph N/A   Unknown
2:55 PM 37.4 °F 29.8 °F 33.8 °F 87% 29.87 in 10.0 mi WNW 11.5 mph 19.6 mph N/A   Unknown
3:15 PM 37.4 °F 29.3 °F 33.8 °F 87% 29.87 in 10.0 mi West 12.7 mph 18.4 mph N/A   Unknown
3:35 PM 35.6 °F 25.9 °F 35.6 °F 100% 29.88 in 10.0 mi West 16.1 mph 24.2 mph N/A   Unknown
3:55 PM 35.6 °F 26.6 °F 35.6 °F 100% 29.88 in 10.0 mi West 13.8 mph 23.0 mph N/A   Unknown
4:15 PM 37.4 °F 27.8 °F 35.6 °F 93% 29.88 in 10.0 mi West 17.3 mph 23.0 mph N/A   Unknown
4:35 PM 35.6 °F 27.5 °F 33.8 °F 93% 29.89 in 10.0 mi West 11.5 mph 23.0 mph N/A   Unknown
4:55 PM 35.6 °F 27.1 °F 32.0 °F 87% 29.90 in 10.0 mi West 12.7 mph 20.7 mph N/A   Unknown
5:15 PM 35.6 °F 27.5 °F 30.2 °F 81% 29.90 in 10.0 mi WNW 11.5 mph 23.0 mph N/A   Unknown
5:35 PM 35.6 °F 29.2 °F 30.2 °F 81% 29.89 in 10.0 mi West 8.1 mph 11.5 mph N/A   Unknown
5:55 PM 35.6 °F 26.6 °F 30.2 °F 81% 29.90 in 10.0 mi West 13.8 mph 18.4 mph N/A   Unknown
6:15 PM 35.6 °F 26.2 °F 30.2 °F 81% 29.91 in 10.0 mi West 15.0 mph - N/A   Unknown
6:35 PM 35.6 °F 28.6 °F 30.2 °F 81% 29.91 in 10.0 mi West 9.2 mph 17.3 mph N/A   Unknown
6:55 PM 35.6 °F 28.6 °F 30.2 °F 81% 29.91 in 10.0 mi West 9.2 mph - N/A   Unknown
7:15 PM 35.6 °F 28.6 °F 30.2 °F 81% 29.91 in 10.0 mi West 9.2 mph - N/A   Unknown
7:35 PM 35.6 °F 27.5 °F 30.2 °F 81% 29.93 in 10.0 mi West 11.5 mph 17.3 mph N/A   Unknown
7:55 PM 35.6 °F 29.9 °F 32.0 °F 87% 29.93 in 10.0 mi West 6.9 mph - N/A   Unknown
8:15 PM 35.6 °F 28.6 °F 32.0 °F 87% 29.94 in 10.0 mi West 9.2 mph - N/A   Unknown
8:35 PM 35.6 °F 28.6 °F 32.0 °F 87% 29.94 in 10.0 mi West 9.2 mph - N/A   Unknown
8:55 PM 35.6 °F 28.6 °F 30.2 °F 81% 29.94 in 10.0 mi West 9.2 mph - N/A   Unknown
9:15 PM 35.6 °F 29.9 °F 30.2 °F 81% 29.95 in 10.0 mi West 6.9 mph - N/A   Unknown
9:35 PM 35.6 °F 29.9 °F 30.2 °F 81% 29.95 in 10.0 mi West 6.9 mph - N/A   Unknown
9:55 PM 35.6 °F 29.2 °F 30.2 °F 81% 29.95 in 10.0 mi West 8.1 mph - N/A   Unknown
10:15 PM 35.6 °F 28.6 °F 30.2 °F 81% 29.95 in 10.0 mi West 9.2 mph - N/A   Unknown
10:35 PM 35.6 °F 27.5 °F 30.2 °F 81% 29.96 in 10.0 mi West 11.5 mph 18.4 mph N/A   Unknown
10:55 PM 35.6 °F 27.5 °F 30.2 °F 81% 29.96 in 10.0 mi West 11.5 mph - N/A   Unknown
11:15 PM 35.6 °F 28.6 °F 30.2 °F 81% 29.96 in 10.0 mi West 9.2 mph 19.6 mph N/A   Unknown
11:35 PM 35.6 °F 27.5 °F 30.2 °F 81% 29.96 in 10.0 mi West 11.5 mph 18.4 mph N/A   Unknown
11:55 PM 35.6 °F 27.1 °F 28.4 °F 75% 29.96 in 10.0 mi West 12.7 mph - N/A   Unknown